Location: Unspecified
(39.0670°S, 0.0000°E)
Time: 21:14:36
(UTC+00:00)

Envisat - Pass Details

Date: 27 June 2019
Orbit: 764 x 766 km, 98.1° (Epoch: 22 October)

Event Time Altitude Azimuth Distance (km) Brightness Sun altitude
Exits shadow 20:03:21 23° 302° (WNW) 1,606 5.1 -37.3°
Drops below altitude 10° 20:05:27 10° 317° (NW) 2,310 5.9 -37.7°
Sets 20:07:52 0° 325° (NW) 3,227 6.6 -38.2°
